Location: Haliburton Scout Reserve
(45.0900°N, 78.3200°W)
Time: 09:27:55
(UTC-04:00)

Explorer 11/Cluster Stage 4 - Pass Details

Date: 31 January 2023
Orbit: 466 x 1241 km, 28.8° (Epoch: 31 March)

Event Time Altitude Azimuth Distance (km) Brightness Sun altitude
Rises 07:17:07 0° 232° (SW) 4,166 10.0 -3.7°
Reaches altitude 10° 07:20:50 10° 218° (SW) 3,194 9.5 -3.1°
Maximum altitude 07:26:33 21° 173° (S) 2,375 9.5 -2.1°
Drops below altitude 10° 07:31:57 10° 128° (SE) 2,991 11.3 -1.3°
Sets 07:35:17 0° 113° (ESE) 3,834 14.6 -0.7°
